Location: Bamazo
(6.7448°N, 10.8189°W)
Time: 16:57:15
(UTC+00:00)

Cosmos 1674 Rocket - Pass Details

Date: 18 September 2020
Orbit: 603 x 630 km, 82.5° (Epoch: 25 October)

Event Time Altitude Azimuth Distance (km) Brightness Sun altitude
Rises 19:16:10 0° 356° (N) 2,905 7.1 -9.5°
Reaches altitude 10° 19:18:23 10° 356° (N) 1,997 6.3 -10.1°
Maximum altitude 19:22:49 89° 272° (W) 629 3.6 -11.2°
Drops below altitude 10° 19:27:15 10° 177° (S) 1,990 6.1 -12.3°
Sets 19:29:28 0° 177° (S) 2,893 6.9 -12.8°
